Location: Basse Occidentale du Courleau
(48.3833°N, 4.8333°W)
Time: 19:51:39
(UTC+00:00)

EO 1 Delta rocket - Pass Details

Date: 05 July 2020
Orbit: 697 x 1792 km, 95.4° (Epoch: 05 August)

Event Time Altitude Azimuth Distance (km) Brightness Sun altitude
Rises 23:33:37 0° 7° (N) 3,177 8.5 -18.1°
Reaches altitude 10° 23:35:45 10° 5° (N) 2,312 7.6 -18.1°
Maximum altitude 23:40:45 72° 282° (WNW) 912 4.4 -18.3°
Enters shadow 23:44:25 24° 204° (SSW) 1,864 5.5 -18.4°
